| time (UTC) | temp F | wind direction | speed knots | gust knots | rain 1hr in | rain 24hr in | rain mn in | humidity % | barometer mb |
| 20260510151205 | 65 | 59 | 0.0 | 0.0 | 0.00 | 0.00 | 0.00 | 29 | 1012.5 |
| 20260510150705 | 64 | 59 | 0.0 | 0.0 | 0.00 | 0.00 | 0.00 | 30 | 1012.5 |
| 20260510150205 | 64 | 59 | 0.0 | 0.0 | 0.00 | 0.00 | 0.00 | 30 | 1012.4 |
| 20260510145705 | 63 | 59 | 0.0 | 0.0 | 0.00 | 0.00 | 0.00 | 30 | 1012.4 |
| 20260510145205 | 63 | 59 | 0.0 | 0.0 | 0.00 | 0.00 | 0.00 | 28 | 1012.4 |
| 20260510144706 | 63 | 59 | 0.0 | 0.0 | 0.00 | 0.00 | 0.00 | 29 | 1012.5 |
| 20260510144205 | 62 | 59 | 0.0 | 0.0 | 0.00 | 0.00 | 0.00 | 32 | 1012.4 |
| 20260510143705 | 62 | 59 | 0.0 | 0.0 | 0.00 | 0.00 | 0.00 | 30 | 1012.4 |
| 20260510143205 | 62 | 59 | 0.0 | 0.0 | 0.00 | 0.00 | 0.00 | 32 | 1012.5 |
| 20260510142705 | 61 | 59 | 0.0 | 0.0 | 0.00 | 0.00 | 0.00 | 29 | 1012.5 |
| 20260510142205 | 61 | 59 | 0.0 | 0.0 | 0.00 | 0.00 | 0.00 | 30 | 1012.4 |
| 20260510141705 | 61 | 59 | 0.0 | 0.0 | 0.00 | 0.00 | 0.00 | 29 | 1012.5 |
| 20260510141205 | 60 | 59 | 0.0 | 0.0 | 0.00 | 0.00 | 0.00 | 31 | 1012.5 |
| 20260510140705 | 60 | 59 | 0.0 | 0.0 | 0.00 | 0.00 | 0.00 | 31 | 1012.4 |
| 20260510140206 | 59 | 59 | 0.0 | 0.0 | 0.00 | 0.00 | 0.00 | 30 | 1012.4 |
| 20260510135705 | 58 | 59 | 0.0 | 0.0 | 0.00 | 0.00 | 0.00 | 34 | 1012.3 |
| 20260510135206 | 57 | 59 | 0.0 | 0.0 | 0.00 | 0.00 | 0.00 | 36 | 1012.3 |
| 20260510134706 | 56 | 59 | 0.0 | 0.0 | 0.00 | 0.00 | 0.00 | 35 | 1012.3 |
| 20260510134206 | 55 | 59 | 0.0 | 0.0 | 0.00 | 0.00 | 0.00 | 34 | 1012.3 |
| 20260510133705 | 55 | 59 | 0.0 | 0.0 | 0.00 | 0.00 | 0.00 | 37 | 1012.2 |
| 20260510133206 | 54 | 59 | 0.0 | 0.0 | 0.00 | 0.00 | 0.00 | 38 | 1012.2 |
| 20260510132706 | 54 | 59 | 0.0 | 0.0 | 0.00 | 0.00 | 0.00 | 42 | 1012.2 |
| 20260510132206 | 53 | 59 | 0.0 | 0.0 | 0.00 | 0.00 | 0.00 | 39 | 1012.1 |
| 20260510131706 | 53 | 59 | 0.0 | 0.0 | 0.00 | 0.00 | 0.00 | 40 | 1012.0 |
| 20260510131206 | 53 | 59 | 0.0 | 0.0 | 0.00 | 0.00 | 0.00 | 37 | 1012.0 |
| 20260510130706 | 52 | 59 | 0.0 | 0.0 | 0.00 | 0.00 | 0.00 | 35 | 1011.9 |
| 20260510130206 | 52 | 59 | 0.0 | 0.0 | 0.00 | 0.00 | 0.00 | 36 | 1011.8 |
| 20260510125706 | 52 | 59 | 0.0 | 0.0 | 0.00 | 0.00 | 0.00 | 38 | 1011.8 |
| 20260510125206 | 51 | 59 | 0.0 | 0.0 | 0.00 | 0.00 | 0.00 | 35 | 1011.8 |
| 20260510124706 | 51 | 59 | 0.0 | 0.0 | 0.00 | 0.00 | 0.00 | 36 | 1011.8 |
| 20260510124206 | 51 | 59 | 0.0 | 0.0 | 0.00 | 0.00 | 0.00 | 35 | 1011.8 |
| 20260510123706 | 51 | 59 | 0.0 | 0.0 | 0.00 | 0.00 | 0.00 | 34 | 1011.7 |
| 20260510123206 | 52 | 59 | 0.0 | 0.0 | 0.00 | 0.00 | 0.00 | 39 | 1011.7 |
| 20260510122706 | 52 | 59 | 0.0 | 0.0 | 0.00 | 0.00 | 0.00 | 36 | 1011.7 |
| 20260510122206 | 52 | 59 | 0.0 | 0.0 | 0.00 | 0.00 | 0.00 | 33 | 1011.6 |
| 20260510121706 | 52 | 59 | 0.0 | 0.0 | 0.00 | 0.00 | 0.00 | 33 | 1011.5 |
| 20260510121206 | 52 | 59 | 0.0 | 0.0 | 0.00 | 0.00 | 0.00 | 33 | 1011.5 |
| 20260510120706 | 53 | 59 | 0.0 | 0.0 | 0.00 | 0.00 | 0.00 | 33 | 1011.5 |
| 20260510120206 | 53 | 59 | 0.0 | 0.0 | 0.00 | 0.00 | 0.00 | 32 | 1011.5 |
| 20260510115706 | 53 | 59 | 0.0 | 0.0 | 0.00 | 0.00 | 0.00 | 33 | 1011.5 |
| 20260510115206 | 53 | 59 | 0.0 | 0.0 | 0.00 | 0.00 | 0.00 | 33 | 1011.4 |
| 20260510114706 | 53 | 59 | 0.0 | 0.0 | 0.00 | 0.00 | 0.00 | 33 | 1011.5 |
| 20260510114206 | 53 | 59 | 0.0 | 0.0 | 0.00 | 0.00 | 0.00 | 33 | 1011.3 |
| 20260510113706 | 53 | 59 | 0.0 | 0.0 | 0.00 | 0.00 | 0.00 | 35 | 1011.2 |
| 20260510113206 | 53 | 59 | 0.9 | 0.0 | 0.00 | 0.00 | 0.00 | 34 | 1011.1 |
| 20260510112706 | 53 | 59 | 0.9 | 1.7 | 0.00 | 0.00 | 0.00 | 32 | 1011.1 |
| 20260510112206 | 53 | 59 | 0.0 | 1.7 | 0.00 | 0.00 | 0.00 | 33 | 1011.1 |
| 20260510111706 | 53 | 59 | 0.0 | 0.0 | 0.00 | 0.00 | 0.00 | 32 | 1011.2 |
| 20260510111206 | 53 | 59 | 0.0 | 0.0 | 0.00 | 0.00 | 0.00 | 33 | 1011.1 |
| 20260510110706 | 53 | 59 | 0.0 | 0.0 | 0.00 | 0.00 | 0.00 | 33 | 1011.1 |
| 20260510110206 | 53 | 59 | 0.0 | 0.0 | 0.00 | 0.00 | 0.00 | 32 | 1011.0 |
| 20260510105706 | 54 | 59 | 0.0 | 0.0 | 0.00 | 0.00 | 0.00 | 31 | 1011.0 |
| 20260510105206 | 54 | 59 | 0.0 | 0.0 | 0.00 | 0.00 | 0.00 | 31 | 1011.0 |
| 20260510104706 | 55 | 59 | 0.0 | 0.0 | 0.00 | 0.00 | 0.00 | 32 | 1010.9 |
| 20260510104206 | 55 | 59 | 0.0 | 0.9 | 0.00 | 0.00 | 0.00 | 29 | 1010.9 |
| 20260510103706 | 55 | 59 | 0.0 | 0.0 | 0.00 | 0.00 | 0.00 | 29 | 1011.0 |
| 20260510103206 | 55 | 59 | 0.0 | 0.0 | 0.00 | 0.00 | 0.00 | 29 | 1010.9 |
| 20260510102706 | 55 | 59 | 0.0 | 0.0 | 0.00 | 0.00 | 0.00 | 30 | 1010.9 |
| 20260510102206 | 55 | 59 | 0.0 | 0.0 | 0.00 | 0.00 | 0.00 | 29 | 1011.0 |
| 20260510101706 | 55 | 59 | 0.0 | 0.0 | 0.00 | 0.00 | 0.00 | 29 | 1010.9 |
| 20260510101206 | 55 | 59 | 0.0 | 0.0 | 0.00 | 0.00 | 0.00 | 29 | 1010.9 |
| 20260510100706 | 55 | 59 | 0.0 | 0.0 | 0.00 | 0.00 | 0.00 | 28 | 1010.9 |
| 20260510100206 | 55 | 59 | 0.0 | 0.0 | 0.00 | 0.00 | 0.00 | 29 | 1010.9 |
| 20260510095706 | 55 | 59 | 0.0 | 1.7 | 0.00 | 0.00 | 0.00 | 29 | 1010.9 |
| 20260510095206 | 54 | 59 | 0.0 | 1.7 | 0.00 | 0.00 | 0.00 | 29 | 1010.9 |
| 20260510094706 | 54 | 59 | 0.0 | 0.0 | 0.00 | 0.00 | 0.00 | 30 | 1010.9 |
| 20260510094206 | 54 | 59 | 0.0 | 0.0 | 0.00 | 0.00 | 0.00 | 29 | 1010.9 |
| 20260510093706 | 55 | 59 | 0.0 | 0.0 | 0.00 | 0.00 | 0.00 | 30 | 1010.9 |
| 20260510093206 | 55 | 59 | 0.0 | 0.0 | 0.00 | 0.00 | 0.00 | 29 | 1010.7 |
| 20260510092706 | 55 | 59 | 0.0 | 0.0 | 0.00 | 0.00 | 0.00 | 29 | 1010.7 |
| 20260510092206 | 55 | 59 | 0.0 | 1.7 | 0.00 | 0.00 | 0.00 | 28 | 1010.7 |
| 20260510091706 | 55 | 59 | 0.0 | 1.7 | 0.00 | 0.00 | 0.00 | 28 | 1010.8 |
| 20260510091206 | 55 | 59 | 0.0 | 0.0 | 0.00 | 0.00 | 0.00 | 28 | 1010.7 |
| 20260510090706 | 55 | 59 | 0.0 | 0.0 | 0.00 | 0.00 | 0.00 | 27 | 1010.7 |
| 20260510090206 | 55 | 59 | 0.0 | 0.0 | 0.00 | 0.00 | 0.00 | 30 | 1010.5 |
| 20260510085706 | 55 | 59 | 0.0 | 0.0 | 0.00 | 0.00 | 0.00 | 28 | 1010.6 |
| 20260510085206 | 56 | 59 | 0.0 | 0.0 | 0.00 | 0.00 | 0.00 | 27 | 1010.5 |
| 20260510084706 | 56 | 59 | 0.0 | 0.0 | 0.00 | 0.00 | 0.00 | 28 | 1010.5 |
| 20260510084206 | 56 | 59 | 0.0 | 0.9 | 0.00 | 0.00 | 0.00 | 27 | 1010.6 |
| 20260510083706 | 56 | 59 | 0.0 | 1.7 | 0.00 | 0.00 | 0.00 | 26 | 1010.5 |
| 20260510083206 | 56 | 59 | 0.0 | 0.0 | 0.00 | 0.00 | 0.00 | 26 | 1010.4 |
| 20260510082706 | 56 | 59 | 0.0 | 0.0 | 0.00 | 0.00 | 0.00 | 27 | 1010.4 |
| 20260510082206 | 56 | 59 | 0.0 | 0.0 | 0.00 | 0.00 | 0.00 | 27 | 1010.4 |
| 20260510081706 | 56 | 59 | 0.0 | 0.0 | 0.00 | 0.00 | 0.00 | 27 | 1010.4 |
| 20260510081206 | 57 | 59 | 0.0 | 0.0 | 0.00 | 0.00 | 0.00 | 26 | 1010.4 |
| 20260510080706 | 57 | 59 | 0.0 | 0.0 | 0.00 | 0.00 | 0.00 | 25 | 1010.3 |
| 20260510080206 | 57 | 59 | 0.0 | 0.0 | 0.00 | 0.00 | 0.00 | 25 | 1010.3 |
| 20260510075706 | 57 | 59 | 0.0 | 0.0 | 0.00 | 0.00 | 0.00 | 23 | 1010.3 |
| 20260510075206 | 57 | 59 | 0.0 | 0.0 | 0.00 | 0.00 | 0.00 | 24 | 1010.3 |
| 20260510074706 | 57 | 59 | 0.0 | 0.0 | 0.00 | 0.00 | 0.00 | 24 | 1010.3 |
| 20260510074206 | 57 | 59 | 0.0 | 0.0 | 0.00 | 0.00 | 0.00 | 23 | 1010.3 |
| 20260510073706 | 57 | 59 | 0.0 | 0.0 | 0.00 | 0.00 | 0.00 | 25 | 1010.3 |
| 20260510073206 | 57 | 59 | 0.0 | 0.0 | 0.00 | 0.00 | 0.00 | 24 | 1010.3 |
| 20260510072706 | 58 | 59 | 0.0 | 0.0 | 0.00 | 0.00 | 0.00 | 23 | 1010.3 |
| 20260510072206 | 58 | 59 | 0.0 | 0.0 | 0.00 | 0.00 | 0.00 | 23 | 1010.3 |
| 20260510071706 | 58 | 59 | 0.0 | 0.0 | 0.00 | 0.00 | 0.00 | 24 | 1010.3 |
| 20260510071206 | 58 | 59 | 0.0 | 0.0 | 0.00 | 0.00 | 0.00 | 23 | 1010.3 |
| 20260510070706 | 58 | 59 | 0.0 | 0.0 | 0.00 | 0.00 | 0.00 | 23 | 1010.2 |
| 20260510070206 | 58 | 59 | 0.0 | 0.9 | 0.00 | 0.00 | 0.00 | 22 | 1010.2 |
| 20260510065706 | 58 | 59 | 0.0 | 0.9 | 0.00 | 0.00 | 0.00 | 23 | 1010.1 |
| 20260510065206 | 58 | 59 | 0.0 | 0.9 | 0.00 | 0.00 | 0.00 | 22 | 1010.0 |
| 20260510064706 | 58 | 59 | 0.0 | 2.6 | 0.00 | 0.00 | 0.00 | 22 | 1009.9 |
| 20260510064206 | 58 | 59 | 0.0 | 2.6 | 0.00 | 0.00 | 0.00 | 23 | 1009.9 |
| 20260510063706 | 58 | 59 | 0.0 | 0.0 | 0.00 | 0.00 | 0.00 | 22 | 1009.9 |
| 20260510063206 | 57 | 59 | 0.0 | 0.0 | 0.00 | 0.00 | 0.00 | 23 | 1009.8 |
| 20260510062706 | 57 | 59 | 0.0 | 0.0 | 0.00 | 0.00 | 0.00 | 23 | 1009.7 |
| 20260510062206 | 57 | 59 | 0.0 | 0.0 | 0.00 | 0.00 | 0.00 | 23 | 1009.8 |
| 20260510061706 | 58 | 59 | 0.0 | 0.0 | 0.00 | 0.00 | 0.00 | 23 | 1009.7 |
| 20260510061206 | 58 | 59 | 0.0 | 0.0 | 0.00 | 0.00 | 0.00 | 23 | 1009.7 |
| 20260510060706 | 57 | 59 | 0.0 | 0.0 | 0.00 | 0.00 | 0.00 | 23 | 1009.6 |
| 20260510060206 | 57 | 59 | 0.0 | 0.0 | 0.00 | 0.00 | 0.00 | 23 | 1009.6 |
| 20260510055706 | 57 | 59 | 0.0 | 0.0 | 0.00 | 0.00 | 0.00 | 24 | 1009.6 |
| 20260510055206 | 57 | 59 | 0.0 | 0.0 | 0.00 | 0.00 | 0.00 | 23 | 1009.5 |
| 20260510054706 | 58 | 59 | 0.0 | 0.0 | 0.00 | 0.00 | 0.00 | 23 | 1009.5 |
| 20260510054206 | 58 | 59 | 0.0 | 0.0 | 0.00 | 0.00 | 0.00 | 24 | 1009.5 |
| 20260510053706 | 58 | 59 | 0.0 | 0.0 | 0.00 | 0.00 | 0.00 | 23 | 1009.4 |
| 20260510053206 | 58 | 59 | 0.0 | 0.0 | 0.00 | 0.00 | 0.00 | 23 | 1009.4 |
| 20260510052706 | 58 | 59 | 0.0 | 0.0 | 0.00 | 0.00 | 0.00 | 24 | 1009.3 |
| 20260510052206 | 58 | 59 | 0.0 | 0.0 | 0.00 | 0.00 | 0.00 | 23 | 1009.3 |
| 20260510051706 | 58 | 59 | 0.0 | 0.0 | 0.00 | 0.00 | 0.00 | 23 | 1009.2 |
| 20260510051206 | 58 | 59 | 0.0 | 1.7 | 0.00 | 0.00 | 0.00 | 23 | 1009.3 |
| 20260510050706 | 58 | 59 | 0.0 | 0.0 | 0.00 | 0.00 | 0.00 | 23 | 1009.2 |
| 20260510050206 | 58 | 59 | 0.0 | 0.0 | 0.00 | 0.00 | 0.00 | 23 | 1009.2 |
| 20260510045706 | 58 | 59 | 0.0 | 0.9 | 0.00 | 0.00 | 0.00 | 23 | 1009.2 |
| 20260510045206 | 57 | 59 | 0.0 | 2.6 | 0.00 | 0.00 | 0.00 | 23 | 1009.2 |
| 20260510044706 | 57 | 59 | 0.0 | 0.0 | 0.00 | 0.00 | 0.00 | 24 | 1009.1 |
| 20260510044206 | 57 | 59 | 0.0 | 0.0 | 0.00 | 0.00 | 0.00 | 24 | 1009.0 |
| 20260510043706 | 57 | 59 | 0.0 | 0.0 | 0.00 | 0.00 | 0.00 | 24 | 1008.9 |
| 20260510043206 | 57 | 59 | 0.0 | 0.0 | 0.00 | 0.00 | 0.00 | 24 | 1008.9 |
| 20260510042706 | 57 | 59 | 0.0 | 0.0 | 0.00 | 0.00 | 0.00 | 24 | 1008.8 |
| 20260510042207 | 57 | 59 | 0.0 | 0.0 | 0.00 | 0.00 | 0.00 | 25 | 1008.8 |
| 20260510041706 | 57 | 59 | 0.0 | 0.0 | 0.00 | 0.00 | 0.00 | 23 | 1008.7 |
| 20260510041206 | 58 | 59 | 0.0 | 0.0 | 0.00 | 0.00 | 0.00 | 24 | 1008.6 |
| 20260510040706 | 58 | 59 | 0.0 | 0.0 | 0.00 | 0.00 | 0.00 | 25 | 1008.6 |
| 20260510040206 | 58 | 59 | 0.0 | 0.0 | 0.00 | 0.00 | 0.00 | 25 | 1008.5 |
| 20260510035706 | 58 | 59 | 0.0 | 0.0 | 0.00 | 0.00 | 0.00 | 25 | 1008.5 |
| 20260510035207 | 58 | 59 | 0.0 | 0.0 | 0.00 | 0.00 | 0.00 | 24 | 1008.3 |
| 20260510034707 | 58 | 59 | 0.0 | 0.0 | 0.00 | 0.00 | 0.00 | 23 | 1008.2 |
| 20260510034207 | 58 | 59 | 0.0 | 0.0 | 0.00 | 0.00 | 0.00 | 24 | 1008.1 |
| 20260510033707 | 58 | 59 | 0.0 | 0.0 | 0.00 | 0.00 | 0.00 | 24 | 1008.0 |
| 20260510033207 | 59 | 59 | 0.0 | 0.0 | 0.00 | 0.00 | 0.00 | 24 | 1008.0 |
| 20260510032707 | 59 | 59 | 0.0 | 0.0 | 0.00 | 0.00 | 0.00 | 24 | 1007.9 |
| 20260510032207 | 59 | 59 | 0.0 | 0.0 | 0.00 | 0.00 | 0.00 | 24 | 1007.9 |
| 20260510031707 | 59 | 59 | 0.0 | 0.0 | 0.00 | 0.00 | 0.00 | 23 | 1007.9 |
| 20260510031207 | 60 | 59 | 0.0 | 0.0 | 0.00 | 0.00 | 0.00 | 24 | 1007.8 |
| 20260510030707 | 60 | 59 | 0.0 | 0.0 | 0.00 | 0.00 | 0.00 | 24 | 1007.8 |
| 20260510030207 | 60 | 59 | 0.0 | 0.0 | 0.00 | 0.00 | 0.00 | 23 | 1007.7 |
| 20260510025707 | 61 | 59 | 0.0 | 0.0 | 0.00 | 0.00 | 0.00 | 23 | 1007.6 |
| 20260510025207 | 61 | 59 | 0.0 | 0.0 | 0.00 | 0.00 | 0.00 | 24 | 1007.6 |
| 20260510024707 | 62 | 59 | 0.0 | 0.0 | 0.00 | 0.00 | 0.00 | 23 | 1007.5 |
| 20260510024207 | 63 | 59 | 0.0 | 0.0 | 0.00 | 0.00 | 0.00 | 22 | 1007.5 |
| 20260510023707 | 63 | 59 | 0.0 | 0.0 | 0.00 | 0.00 | 0.00 | 21 | 1007.5 |
| 20260510023207 | 64 | 59 | 0.0 | 0.0 | 0.00 | 0.00 | 0.00 | 21 | 1007.5 |
| 20260510022707 | 65 | 59 | 0.0 | 0.0 | 0.00 | 0.00 | 0.00 | 20 | 1007.5 |
| 20260510022207 | 65 | 59 | 0.0 | 0.0 | 0.00 | 0.00 | 0.00 | 19 | 1007.3 |
| 20260510021707 | 66 | 59 | 0.0 | 0.0 | 0.00 | 0.00 | 0.00 | 17 | 1007.3 |
| 20260510021207 | 66 | 59 | 0.0 | 0.0 | 0.00 | 0.00 | 0.00 | 17 | 1007.3 |
| 20260510020707 | 67 | 60 | 0.0 | 0.0 | 0.00 | 0.00 | 0.00 | 17 | 1007.3 |
| 20260510020207 | 67 | 59 | 0.0 | 0.0 | 0.00 | 0.00 | 0.00 | 17 | 1007.3 |
| 20260510015707 | 68 | 59 | 0.0 | 0.0 | 0.00 | 0.00 | 0.00 | 16 | 1007.2 |
| 20260510015207 | 68 | 59 | 0.0 | 0.0 | 0.00 | 0.00 | 0.00 | 15 | 1007.1 |
| 20260510014707 | 69 | 60 | 0.9 | 2.6 | 0.00 | 0.00 | 0.00 | 15 | 1007.0 |
| 20260510014207 | 69 | 60 | 0.9 | 2.6 | 0.00 | 0.00 | 0.00 | 14 | 1007.0 |
| 20260510013707 | 69 | 60 | 0.0 | 4.3 | 0.00 | 0.00 | 0.00 | 15 | 1007.0 |
| 20260510013207 | 69 | 60 | 0.9 | 2.6 | 0.00 | 0.00 | 0.00 | 15 | 1007.0 |
| 20260510012707 | 70 | 59 | 0.9 | 2.6 | 0.00 | 0.00 | 0.00 | 15 | 1007.0 |
| 20260510012207 | 70 | 58 | 0.9 | 3.5 | 0.00 | 0.00 | 0.00 | 16 | 1007.0 |
| 20260510011707 | 70 | 55 | 0.9 | 4.3 | 0.00 | 0.00 | 0.00 | 16 | 1007.0 |
| 20260510011207 | 70 | 58 | 0.9 | 3.5 | 0.00 | 0.00 | 0.00 | 16 | 1007.0 |
| 20260510010707 | 70 | 81 | 0.9 | 2.6 | 0.00 | 0.00 | 0.00 | 15 | 1007.0 |
| 20260510010207 | 70 | 81 | 1.7 | 6.1 | 0.00 | 0.00 | 0.00 | 15 | 1007.0 |
| 20260510005707 | 70 | 59 | 1.7 | 7.0 | 0.00 | 0.00 | 0.00 | 15 | 1007.0 |
| 20260510005207 | 71 | 55 | 0.9 | 2.6 | 0.00 | 0.00 | 0.00 | 15 | 1007.0 |
| 20260510004707 | 70 | 56 | 0.9 | 2.6 | 0.00 | 0.00 | 0.00 | 15 | 1007.0 |
| 20260510004207 | 70 | 55 | 1.7 | 2.6 | 0.00 | 0.00 | 0.00 | 15 | 1007.0 |
| 20260510003707 | 70 | 55 | 1.7 | 5.2 | 0.00 | 0.00 | 0.00 | 15 | 1007.0 |
| 20260510003207 | 70 | 52 | 1.7 | 4.3 | 0.00 | 0.00 | 0.00 | 15 | 1007.1 |
| 20260510002707 | 70 | 34 | 1.7 | 4.3 | 0.00 | 0.00 | 0.00 | 16 | 1007.0 |
| 20260510002207 | 71 | 33 | 1.7 | 5.2 | 0.00 | 0.00 | 0.00 | 15 | 1007.1 |
| 20260510001707 | 71 | 36 | 1.7 | 5.2 | 0.00 | 0.00 | 0.00 | 15 | 1007.1 |
| 20260510001207 | 71 | 44 | 1.7 | 7.0 | 0.00 | 0.00 | 0.00 | 16 | 1007.2 |
| 20260510000707 | 71 | 31 | 1.7 | 4.3 | 0.00 | 0.00 | 0.00 | 15 | 1007.1 |
| 20260510000207 | 70 | 42 | 2.6 | 6.1 | 0.00 | 0.00 | 0.00 | 16 | 1007.2 |
| 20260509235707 | 71 | 74 | 2.6 | 7.0 | 0.00 | 0.00 | 0.00 | 14 | 1007.2 |
| 20260509235207 | 71 | 23 | 1.7 | 5.2 | 0.00 | 0.00 | 0.00 | 16 | 1007.2 |
| 20260509234707 | 71 | 23 | 1.7 | 6.1 | 0.00 | 0.00 | 0.00 | 16 | 1007.2 |
| 20260509234207 | 71 | 55 | 2.6 | 6.1 | 0.00 | 0.00 | 0.00 | 16 | 1007.2 |
| 20260509233707 | 71 | 16 | 2.6 | 6.1 | 0.00 | 0.00 | 0.00 | 16 | 1007.2 |
| 20260509233207 | 71 | 38 | 2.6 | 5.2 | 0.00 | 0.00 | 0.00 | 16 | 1007.1 |
| 20260509232707 | 71 | 53 | 2.6 | 9.6 | 0.00 | 0.00 | 0.00 | 15 | 1007.1 |
| 20260509232207 | 71 | 72 | 2.6 | 7.0 | 0.00 | 0.00 | 0.00 | 15 | 1007.2 |
| 20260509231707 | 71 | 50 | 2.6 | 5.2 | 0.00 | 0.00 | 0.00 | 15 | 1007.2 |
| 20260509231207 | 71 | 67 | 3.5 | 6.1 | 0.00 | 0.00 | 0.00 | 15 | 1007.3 |
| 20260509230707 | 71 | 21 | 3.5 | 6.1 | 0.00 | 0.00 | 0.00 | 14 | 1007.3 |
| 20260509230207 | 71 | 19 | 2.6 | 7.0 | 0.00 | 0.00 | 0.00 | 15 | 1007.3 |
| 20260509225707 | 70 | 126 | 2.6 | 5.2 | 0.00 | 0.00 | 0.00 | 15 | 1007.3 |
| 20260509225207 | 70 | 71 | 2.6 | 7.8 | 0.00 | 0.00 | 0.00 | 16 | 1007.3 |
| 20260509224707 | 70 | 30 | 2.6 | 7.8 | 0.00 | 0.00 | 0.00 | 17 | 1007.4 |
| 20260509224207 | 70 | 68 | 3.5 | 8.7 | 0.00 | 0.00 | 0.00 | 16 | 1007.4 |
| 20260509223707 | 70 | 82 | 3.5 | 7.0 | 0.00 | 0.00 | 0.00 | 16 | 1007.5 |
| 20260509223207 | 71 | 21 | 3.5 | 9.6 | 0.00 | 0.00 | 0.00 | 16 | 1007.5 |
| 20260509222707 | 71 | 37 | 2.6 | 7.8 | 0.00 | 0.00 | 0.00 | 17 | 1007.6 |
| 20260509222207 | 71 | 67 | 1.7 | 6.1 | 0.00 | 0.00 | 0.00 | 16 | 1007.5 |
| 20260509221707 | 71 | 17 | 2.6 | 7.8 | 0.00 | 0.00 | 0.00 | 16 | 1007.6 |
| 20260509221207 | 71 | 59 | 2.6 | 6.1 | 0.00 | 0.00 | 0.00 | 17 | 1007.6 |
| 20260509220707 | 71 | 55 | 2.6 | 8.7 | 0.00 | 0.00 | 0.00 | 16 | 1007.5 |
| 20260509220207 | 71 | 57 | 1.7 | 7.0 | 0.00 | 0.00 | 0.00 | 17 | 1007.5 |
| 20260509215707 | 71 | 51 | 1.7 | 7.0 | 0.00 | 0.00 | 0.00 | 17 | 1007.6 |
| 20260509215207 | 71 | 71 | 1.7 | 4.3 | 0.00 | 0.00 | 0.00 | 19 | 1007.7 |
| 20260509214707 | 71 | 52 | 1.7 | 7.0 | 0.00 | 0.00 | 0.00 | 17 | 1007.7 |
| 20260509214207 | 71 | 32 | 0.9 | 6.1 | 0.00 | 0.00 | 0.00 | 17 | 1007.8 |
| 20260509213707 | 71 | 37 | 0.9 | 6.1 | 0.00 | 0.00 | 0.00 | 18 | 1007.8 |
| 20260509213207 | 70 | 59 | 1.7 | 5.2 | 0.00 | 0.00 | 0.00 | 18 | 1007.7 |
| 20260509212707 | 70 | 77 | 1.7 | 7.0 | 0.00 | 0.00 | 0.00 | 19 | 1007.8 |
| 20260509212207 | 70 | 36 | 1.7 | 7.0 | 0.00 | 0.00 | 0.00 | 19 | 1007.8 |
| 20260509211707 | 70 | 96 | 2.6 | 7.0 | 0.00 | 0.00 | 0.00 | 18 | 1007.8 |
| 20260509211207 | 69 | 44 | 1.7 | 6.1 | 0.00 | 0.00 | 0.00 | 21 | 1007.8 |
| 20260509210707 | 69 | 63 | 1.7 | 7.0 | 0.00 | 0.00 | 0.00 | 19 | 1007.9 |
| 20260509210207 | 69 | 61 | 1.7 | 6.1 | 0.00 | 0.00 | 0.00 | 19 | 1007.8 |
| 20260509205707 | 70 | 30 | 1.7 | 6.1 | 0.00 | 0.00 | 0.00 | 21 | 1007.9 |
| 20260509205207 | 70 | 30 | 1.7 | 6.1 | 0.00 | 0.00 | 0.00 | 19 | 1007.9 |
| 20260509204707 | 70 | 44 | 1.7 | 4.3 | 0.00 | 0.00 | 0.00 | 19 | 1007.9 |
| 20260509204207 | 70 | 46 | 1.7 | 4.3 | 0.00 | 0.00 | 0.00 | 20 | 1007.8 |
| 20260509203707 | 70 | 55 | 2.6 | 7.8 | 0.00 | 0.00 | 0.00 | 22 | 1007.9 |
| 20260509203207 | 70 | 34 | 1.7 | 7.0 | 0.00 | 0.00 | 0.00 | 21 | 1008.0 |
| 20260509202707 | 69 | 46 | 1.7 | 4.3 | 0.00 | 0.00 | 0.00 | 23 | 1007.7 |
| 20260509202207 | 69 | 50 | 2.6 | 6.1 | 0.00 | 0.00 | 0.00 | 21 | 1007.9 |
| 20260509201707 | 70 | 75 | 2.6 | 7.8 | 0.00 | 0.00 | 0.00 | 21 | 1007.9 |
| 20260509201207 | 70 | 134 | 1.7 | 7.8 | 0.00 | 0.00 | 0.00 | 24 | 1007.9 |
| 20260509200707 | 70 | 74 | 1.7 | 7.8 | 0.00 | 0.00 | 0.00 | 22 | 1008.2 |
| 20260509200207 | 70 | 69 | 0.9 | 3.5 | 0.00 | 0.00 | 0.00 | 25 | 1008.2 |
| 20260509195707 | 70 | 70 | 1.7 | 4.3 | 0.00 | 0.00 | 0.00 | 23 | 1008.1 |
| 20260509195207 | 69 | 59 | 1.7 | 6.1 | 0.00 | 0.00 | 0.00 | 23 | 1008.3 |
| 20260509194707 | 69 | 74 | 1.7 | 6.1 | 0.00 | 0.00 | 0.00 | 22 | 1008.1 |
| 20260509194207 | 69 | 58 | 0.9 | 7.0 | 0.00 | 0.00 | 0.00 | 23 | 1008.1 |
| 20260509193707 | 69 | 53 | 0.9 | 6.1 | 0.00 | 0.00 | 0.00 | 21 | 1008.2 |
| 20260509193207 | 69 | 53 | 1.7 | 5.2 | 0.00 | 0.00 | 0.00 | 24 | 1008.2 |
| 20260509192707 | 69 | 18 | 1.7 | 6.1 | 0.00 | 0.00 | 0.00 | 22 | 1008.2 |
| 20260509192207 | 69 | 74 | 0.9 | 4.3 | 0.00 | 0.00 | 0.00 | 22 | 1008.2 |
| 20260509191707 | 68 | 60 | 0.9 | 0.9 | 0.00 | 0.00 | 0.00 | 26 | 1008.2 |
| 20260509191207 | 68 | 60 | 1.7 | 7.0 | 0.00 | 0.00 | 0.00 | 23 | 1008.3 |
| 20260509190707 | 68 | 37 | 1.7 | 3.5 | 0.00 | 0.00 | 0.00 | 23 | 1008.3 |
| 20260509190207 | 68 | 36 | 1.7 | 5.2 | 0.00 | 0.00 | 0.00 | 23 | 1008.3 |
| 20260509185707 | 67 | 34 | 1.7 | 7.0 | 0.00 | 0.00 | 0.00 | 25 | 1008.3 |
| 20260509185207 | 68 | 69 | 0.9 | 5.2 | 0.00 | 0.00 | 0.00 | 24 | 1008.4 |
| 20260509184707 | 68 | 69 | 0.9 | 5.2 | 0.00 | 0.00 | 0.00 | 24 | 1008.5 |
| 20260509184207 | 68 | 69 | 0.9 | 3.5 | 0.00 | 0.00 | 0.00 | 25 | 1008.5 |
| 20260509183707 | 68 | 65 | 0.9 | 7.0 | 0.00 | 0.00 | 0.00 | 22 | 1008.5 |
| 20260509183207 | 68 | 70 | 0.9 | 7.0 | 0.00 | 0.00 | 0.00 | 27 | 1008.5 |
| 20260509182707 | 68 | 41 | 2.6 | 4.3 | 0.00 | 0.00 | 0.00 | 24 | 1008.4 |
| 20260509182207 | 67 | 28 | 2.6 | 8.7 | 0.00 | 0.00 | 0.00 | 25 | 1008.5 |
| 20260509181707 | 67 | 57 | 1.7 | 5.2 | 0.00 | 0.00 | 0.00 | 24 | 1008.5 |
| 20260509181207 | 67 | 78 | 1.7 | 6.1 | 0.00 | 0.00 | 0.00 | 23 | 1008.5 |
| 20260509180707 | 67 | 95 | 1.7 | 4.3 | 0.00 | 0.00 | 0.00 | 25 | 1008.5 |
| 20260509180207 | 66 | 90 | 2.6 | 7.0 | 0.00 | 0.00 | 0.00 | 24 | 1008.5 |
| 20260509175707 | 66 | 74 | 1.7 | 6.1 | 0.00 | 0.00 | 0.00 | 24 | 1008.6 |
| 20260509175207 | 65 | 40 | 1.7 | 5.2 | 0.00 | 0.00 | 0.00 | 26 | 1008.5 |
| 20260509174707 | 66 | 40 | 1.7 | 5.2 | 0.00 | 0.00 | 0.00 | 26 | 1008.5 |
| 20260509174207 | 66 | 41 | 2.6 | 4.3 | 0.00 | 0.00 | 0.00 | 24 | 1008.5 |
| 20260509173707 | 65 | 61 | 2.6 | 5.2 | 0.00 | 0.00 | 0.00 | 22 | 1008.6 |
| 20260509173207 | 66 | 86 | 2.6 | 8.7 | 0.00 | 0.00 | 0.00 | 22 | 1008.6 |
| 20260509172708 | 66 | 53 | 2.6 | 7.0 | 0.00 | 0.00 | 0.00 | 23 | 1008.5 |
| 20260509172207 | 66 | 49 | 1.7 | 7.0 | 0.00 | 0.00 | 0.00 | 23 | 1008.5 |
| 20260509171707 | 65 | 61 | 1.7 | 4.3 | 0.00 | 0.00 | 0.00 | 27 | 1008.4 |
| 20260509171208 | 65 | 34 | 1.7 | 4.3 | 0.00 | 0.00 | 0.00 | 27 | 1008.5 |
| 20260509170708 | 64 | 31 | 1.7 | 4.3 | 0.00 | 0.00 | 0.00 | 25 | 1008.5 |
| 20260509170208 | 64 | 30 | 2.6 | 5.2 | 0.00 | 0.00 | 0.00 | 25 | 1008.5 |
| 20260509165708 | 65 | 60 | 2.6 | 5.2 | 0.00 | 0.00 | 0.00 | 26 | 1008.4 |
| 20260509165208 | 65 | 52 | 2.6 | 4.3 | 0.00 | 0.00 | 0.00 | 26 | 1008.3 |
| 20260509164708 | 64 | 48 | 1.7 | 9.6 | 0.00 | 0.00 | 0.00 | 26 | 1008.3 |
| 20260509164208 | 64 | 49 | 1.7 | 9.6 | 0.00 | 0.00 | 0.00 | 27 | 1008.4 |
| 20260509163759 | 64 | 35 | 2.6 | 6.1 | 0.00 | 0.00 | 0.00 | 26 | 1008.6 |
| 20260509163208 | 64 | 53 | 2.6 | 7.0 | 0.00 | 0.00 | 0.00 | 27 | 1008.5 |
| 20260509162708 | 64 | 64 | 2.6 | 8.7 | 0.00 | 0.00 | 0.00 | 26 | 1008.5 |
| 20260509162208 | 64 | 45 | 2.6 | 7.0 | 0.00 | 0.00 | 0.00 | 27 | 1008.5 |
| 20260509161708 | 64 | 77 | 2.6 | 7.0 | 0.00 | 0.00 | 0.00 | 28 | 1008.5 |
| 20260509161208 | 64 | 64 | 2.6 | 7.8 | 0.00 | 0.00 | 0.00 | 26 | 1008.4 |
| 20260509160708 | 63 | 59 | 2.6 | 6.1 | 0.00 | 0.00 | 0.00 | 27 | 1008.5 |
| 20260509160208 | 63 | 48 | 2.6 | 7.0 | 0.00 | 0.00 | 0.00 | 27 | 1008.4 |
| 20260509155708 | 63 | 62 | 2.6 | 6.1 | 0.00 | 0.00 | 0.00 | 26 | 1008.5 |
| 20260509155208 | 63 | 40 | 3.5 | 7.8 | 0.00 | 0.00 | 0.00 | 27 | 1008.5 |
| 20260509154708 | 63 | 42 | 3.5 | 9.6 | 0.00 | 0.00 | 0.00 | 26 | 1008.4 |
| 20260509154208 | 63 | 63 | 3.5 | 7.8 | 0.00 | 0.00 | 0.00 | 26 | 1008.5 |
| 20260509153708 | 63 | 53 | 3.5 | 8.7 | 0.00 | 0.00 | 0.00 | 26 | 1008.6 |
| 20260509153208 | 63 | 31 | 3.5 | 7.0 | 0.00 | 0.00 | 0.00 | 26 | 1008.5 |
| 20260509152708 | 63 | 77 | 3.5 | 8.7 | 0.00 | 0.00 | 0.00 | 26 | 1008.4 |
| 20260509152208 | 63 | 55 | 3.5 | 8.7 | 0.00 | 0.00 | 0.00 | 26 | 1008.4 |
| 20260509151708 | 63 | 46 | 3.5 | 7.0 | 0.00 | 0.00 | 0.00 | 26 | 1008.5 |